STARLINK-32330, 61850

Orbit data source: Space-Track

STARLINK-32330, 61850 is a payload satellite owned by SpaceX/Seattle (US) in LEO that was launched on Thu, 07 Nov 2024 UTC via an FALCON 9 launch vehicle from the Air Force Eastern Test Range (AFETR). Payload-class satellites include a variety of spacecraft equipped with specific instruments for various scientific and technological missions. These include communications satellites like Starlink; space stations such as the ISS; scientific satellites like the Hubble; Earth observation satellites from companies like Planet Labs, Umbra, and HawkEye 360; GPS; miniature CubeSats for education and research; and military/defense satellites.

Loading next visibility...
Identifier
61850, 2024-202F
Orbit
LEO
Country
Flag of USUS
Related business
Manufacturer
SpaceX/Seattle
Mission
Operational spacecraft
Bus & Motor
STARLINK V2M, Unknown motor
Mass
730 kg wet, ~700 kg dry
Launch date (UTC)
2024-11-07 (1 year ago)
Launch vehicle
FALCON 9
Launch site
Air Force Eastern Test Range (AFETR)
Object type
Payload
Rocket body
Debris
Shape & HBR
Unknown shape, 17.7 m
Radar Cross Section
Large (>1 m²)

Expand to show TLE details & history
Last TLE update: 1 day ago

TLE from 1 day ago
0 STARLINK-32330
1 61850U 24202F   25305.80579760 -.00000748  00000-0 -17671-4 0  9994
2 61850  43.0025 239.8546 0001064 266.7743  93.2987 15.27567112 55789
Epoch: 2025-11-01T19:20Z
TLE epoch observation values (Epoch: 2025-11-01T19:20:20.912Z)
Latitude
-0.00002°
Longitude
-91.56316°
Altitude
482.905 km
Speed
7.626 km/s
True Right ascension
15h 59m 25s
True Declination
0° 00' 00"
Sunlit
Object was in daylight at epoch
Visualization orbit readout
Latitude
Unknown
Longitude
Unknown
Altitude
Unknown
Speed
Unknown
Apparent Right ascension
Unknown
Apparent Declination
Unknown
Sunlit
N/A
Visualization observer readout
Local Sidereal Time
19:30:01
Azimuth
Unknown
Elevation
Unknown
Doppler factor
Unknown
Orbital elements
Apogee altitude
485.763 km
Perigee altitude
484.302 km
Semi-major axis
6,863.169 km
Eccentricity
0.00011
Inclination
43.0025°
RAAN
239.8546°
Arg. of periapsis
266.7743°
True anomaly
93.31087°
Mean anomaly
93.2987°
Eccentric anomaly
93.30479°
Mean motion
3.8173 °/min
Orbital period
94.31 mins
BSTAR
-0.000017671
Loading maneuver chart data...
Computing Atmospheric mass density...
Loading historical data...
Loading historical data...
Loading historical data...
Loading historical data...
Loading historical data...
Loading historical data...
Loading historical data...

Documentation

Showing up to 5 results
|